sat.trackr.live / text

‹ back to catalog

YAOGAN-30 02C

NORAD 42947 · 2017-058C

PAYLOAD ACTIVE UNKNOWN

§ Identity

Operator
Country
PRC
Launch date
2017-09-29
Launch site
XICLF
Launch vehicle
Mass (kg)
RCS (m²)

External: N2YO · Heavens-Above · Gunter

§ Orbital elements

Epoch: 2026-05-25T04:10:12.887328Z

Period
95.72 min
Inclination
34.9959°
Eccentricity
0.0004733
Mean motion
15.04366262 rev/d
Perigee alt
550.2 km
Apogee alt
556.7 km
Semi-major
6,931.6 km
B*
1.4360e-4
RAAN
161.3347°
Arg perigee
354.9255°
Mean anomaly
5.1405°
Rev number
47,235

§ Raw data

YAOGAN-30 02C1 42947U 17058C   26145.17376027  .00002015  00000+0  14360-3 0  99922 42947  34.9959 161.3347 0004733 354.9255   5.1405 15.04366262472353

JSON: /api/v1/satellites/42947 · /tle

For live sub-satellite position, see the globe view (requires WebGL).

§ Visibility from observer

Set your observer location to see the next 7 days of passes ≥ 10°. The values pass through the URL so the page stays shareable.

No JS? Fill the form by hand. The geolocation button needs JavaScript.